Torna al catalogo

DELTA 1 DEB

YO

AttivoVLEO
NORAD 228·DEBRIS·🇺🇸 United States

Lanciato Feb 8, 1962 da Cape Canaveral Space Force Station

Loading…

Prossimi Passaggi (prossime 24 ore)

TLE

AggiornatoSource: Space-Track

Epoca: Sep 5, 2026, 06:31 UTC

1   228U 62002C   26248.27178602  .00025318  00000-0  33056-3 0  9996
2   228  48.4280 249.6663 0001225 128.0105 232.0953 15.58406474455577

Traccia DELTA 1 DEB in tempo reale con AllMySat

Download on the App Store